Pittsfield, MA

5:19 PM EST on January 19, 2017 (GMT -0500)
Pittsfield Municipal

Weather History for KPSF - November, 2013

Change the Weather History Date:

Tuesday, November 12, 2013

  Actual Average Record
Temperature  
Mean Temperature 33 °F 39 °F  
Max Temperature 43 °F 49 °F 68 °F (1931)
Min Temperature 23 °F 30 °F 16 °F (1933)
Degree Days  
Heating Degree Days 32 26  
Month to date heating degree days 300 290  
Since 1 July heating degree days 1073 1126  
Cooling Degree Days 0 0  
Month to date cooling degree days 0 0  
Year to date cooling degree days 433 290  
Moisture  
Dew Point 21 °F    
Average Humidity 69    
Maximum Humidity 85    
Minimum Humidity 53    
Precipitation  
Precipitation T in 0.11 in 1.72 in (1947)
Month to date precipitation 0.86 1.53  
Year to date precipitation 34.38 39.98  
Sea Level Pressure  
Sea Level Pressure 30.05 in    
Wind  
Wind Speed 12 mph (WNW)    
Max Wind Speed 23 mph    
Max Gust Speed 30 mph    
Visibility 8 miles    
Events Rain , Snow    
T = Trace of Precipitation, MM = Missing Value Source: NWS Daily Summary

Daily Weather History Graph

Daily Weather History Graph

Search for Another Location

Airport or City:

Trip Planner

Search our weather history database for the weather conditions in past years. The results will help you decide how hot, cold, wet, or windy it might be!

Date:

Astronomy

Nov. 12, 2013 Rise Set
Actual Time 6:40 AM EST 4:33 PM EST
Civil Twilight 6:10 AM EST 5:03 PM EST
Nautical Twilight 5:36 AM EST 5:37 PM EST
Astronomical Twilight 5:03 AM EST 6:10 PM EST
Moon 1:51 PM EST (11/12) 1:21 AM EST (11/12)
Length of Visible Light 10h 53m
Length of Day
9h 52m
Waxing Gibbous, 76% of the Moon is Illuminated
Nov 12
Waxing Gibbous
Nov 17
Full
Nov 25
Last Quarter
Dec 2
New
Dec 9
First Quarter

Hourly Weather History & Observations

Time (EST) Temp. Windchill Dew Point Humidity Pressure Visibility Wind Dir Wind Speed Gust Speed Precip Events Conditions
12:54 AM 42.1 °F 34.2 °F 30.0 °F 62% 29.88 in 10.0 mi West 16.1 mph 26.5 mph N/A   Overcast
1:15 AM 41.0 °F 33.5 °F 32.0 °F 70% 29.88 in 10.0 mi West 13.8 mph 24.2 mph 0.00 in Rain Light Rain
1:54 AM 36.0 °F 27.1 °F 28.9 °F 76% 29.91 in 10.0 mi WNW 13.8 mph 24.2 mph 0.00 in   Overcast
2:54 AM 35.1 °F 25.2 °F 27.0 °F 72% 29.93 in 10.0 mi WNW 16.1 mph 24.2 mph N/A   Overcast
3:04 AM 33.8 °F 26.4 °F 28.4 °F 81% 29.92 in 7.0 mi WNW 9.2 mph 24.2 mph 0.00 in Snow Light Snow
3:45 AM 33.8 °F 23.5 °F 26.6 °F 75% 29.94 in 4.0 mi WNW 16.1 mph 21.9 mph 0.00 in Snow Light Snow
3:50 AM 32.0 °F 21.6 °F 26.6 °F 80% 29.94 in 2.0 mi WNW 15.0 mph 24.2 mph 0.00 in Snow Light Snow
3:54 AM 32.0 °F 20.8 °F 26.1 °F 79% 29.96 in 1.2 mi WNW 17.3 mph 24.2 mph 0.00 in Snow Light Snow
4:30 AM 30.2 °F 19.3 °F 26.6 °F 86% 29.95 in 2.0 mi WNW 15.0 mph 20.7 mph 0.00 in Snow Light Snow
4:41 AM 30.2 °F 20.8 °F 26.6 °F 86% 29.95 in 1.8 mi WNW 11.5 mph - 0.00 in Snow Light Snow
4:51 AM 30.2 °F 20.8 °F 26.6 °F 86% 29.96 in 2.5 mi WNW 11.5 mph 19.6 mph 0.00 in Snow Light Snow
4:54 AM 30.0 °F 21.1 °F 26.1 °F 85% 29.97 in 2.5 mi WNW 10.4 mph 19.6 mph 0.00 in Snow Light Snow
5:08 AM 30.2 °F 19.8 °F 26.6 °F 86% 29.96 in 1.8 mi WNW 13.8 mph 21.9 mph 0.00 in Snow Light Snow
5:11 AM 30.2 °F 17.8 °F 26.6 °F 86% 29.97 in 1.0 mi WNW 19.6 mph 27.6 mph 0.00 in Snow Light Snow
5:18 AM 30.2 °F 20.8 °F 26.6 °F 86% 29.97 in 0.8 mi NW 11.5 mph 27.6 mph 0.00 in Snow Light Snow
5:21 AM 30.2 °F 21.9 °F 26.6 °F 86% 29.97 in 1.0 mi NW 9.2 mph 24.2 mph 0.00 in Snow Light Snow
5:29 AM 30.2 °F 18.9 °F 26.6 °F 86% 29.97 in 1.2 mi WNW 16.1 mph 24.2 mph 0.00 in Snow Light Snow
5:47 AM 28.4 °F 17.0 °F 24.8 °F 86% 29.98 in 3.0 mi WNW 15.0 mph 23.0 mph 0.00 in Snow Light Snow
5:54 AM 28.9 °F 17.7 °F 21.9 °F 75% 30.00 in 9.0 mi WNW 15.0 mph 25.3 mph 0.00 in   Overcast
6:54 AM 28.0 °F 18.6 °F 21.0 °F 75% 30.02 in 10.0 mi NW 10.4 mph 18.4 mph N/A   Overcast
7:54 AM 27.0 °F 16.1 °F 19.9 °F 75% 30.05 in 10.0 mi West 12.7 mph - N/A   Overcast
8:47 AM 26.6 °F 17.5 °F 19.4 °F 74% 30.05 in 10.0 mi WNW 9.2 mph 19.6 mph N/A   Overcast
8:54 AM 27.0 °F 16.7 °F 19.0 °F 72% 30.07 in 10.0 mi WNW 11.5 mph 17.3 mph N/A   Mostly Cloudy
9:01 AM 26.6 °F 15.7 °F 19.4 °F 74% 30.05 in 10.0 mi WNW 12.7 mph - N/A   Mostly Cloudy
9:54 AM 27.0 °F 17.3 °F 18.0 °F 69% 30.09 in 10.0 mi NW 10.4 mph 21.9 mph N/A   Mostly Cloudy
10:26 AM 26.6 °F 16.2 °F 17.6 °F 69% 30.08 in 10.0 mi NW 11.5 mph 21.9 mph N/A   Scattered Clouds
10:46 AM 26.6 °F 16.2 °F 17.6 °F 69% 30.08 in 10.0 mi WNW 11.5 mph - N/A   Mostly Cloudy
10:54 AM 26.1 °F 15.0 °F 17.1 °F 69% 30.10 in 10.0 mi WNW 12.7 mph 21.9 mph N/A   Mostly Cloudy
11:05 AM 26.6 °F 16.2 °F 17.6 °F 69% 30.08 in 10.0 mi NW 11.5 mph 18.4 mph N/A   Mostly Cloudy
11:54 AM 26.1 °F 16.8 °F 17.1 °F 69% 30.10 in 10.0 mi NW 9.2 mph - N/A   Overcast
12:54 PM 27.0 °F 23.0 °F 16.0 °F 63% 30.10 in 10.0 mi WNW 3.5 mph - N/A   Overcast
1:54 PM 28.0 °F 15.7 °F 17.1 °F 63% 30.12 in 10.0 mi West 17.3 mph 21.9 mph N/A   Overcast
2:54 PM 28.0 °F 17.0 °F 16.0 °F 61% 30.13 in 10.0 mi WNW 13.8 mph 21.9 mph N/A   Overcast
3:54 PM 27.0 °F 16.7 °F 16.0 °F 63% 30.16 in 10.0 mi WNW 11.5 mph - N/A   Mostly Cloudy
4:54 PM 25.0 °F 14.2 °F 14.0 °F 63% 30.19 in 10.0 mi WNW 11.5 mph 26.5 mph N/A   Partly Cloudy
5:54 PM 25.0 °F 17.1 °F 12.9 °F 60% 30.21 in 10.0 mi Variable 6.9 mph - N/A   Clear
6:54 PM 24.1 °F 16.0 °F 12.9 °F 62% 30.22 in 10.0 mi WNW 6.9 mph - N/A   Mostly Cloudy
7:54 PM 25.0 °F 19.3 °F 12.9 °F 60% 30.23 in 10.0 mi West 4.6 mph - N/A   Overcast
8:54 PM 24.1 °F 14.4 °F 12.9 °F 62% 30.23 in 10.0 mi NW 9.2 mph 17.3 mph N/A   Mostly Cloudy
9:54 PM 24.1 °F 14.4 °F 16.0 °F 71% 30.22 in 10.0 mi WNW 9.2 mph - N/A   Scattered Clouds
10:37 PM 24.8 °F 12.4 °F 17.6 °F 74% 30.17 in 10.0 mi NW 15.0 mph 24.2 mph N/A   Mostly Cloudy
10:54 PM 24.1 °F 11.0 °F 18.0 °F 77% 30.23 in 10.0 mi WNW 16.1 mph 20.7 mph N/A   Mostly Cloudy
11:05 PM 24.8 °F 13.4 °F 17.6 °F 74% 30.18 in 10.0 mi WNW 12.7 mph - N/A   Scattered Clouds
11:54 PM 23.0 °F 10.6 °F 16.0 °F 74% 30.22 in 10.0 mi WNW 13.8 mph 23.0 mph N/A   Partly Cloudy